NOAA 16 DEB, 41094

Orbit data source: Space-Track

NOAA 16 DEB, 41094 is space debris in SSO originally from a launch on Thu, 21 Sep 2000 UTC launched from the Air Force Western Test Range (AFWTR). Debris objects in space refer to the collection of defunct objects orbiting the Earth. Examples of debris include non-operational satellites, rocket bodies, and fragments generated from explosions, collisions, or faulty payload assembly.

Loading next visibility...
Identifier
41094, 2000-055BD
Orbit
SSO
Country
Flag of USUS
Related business
Manufacturer
Unknown
Mission
Spacecraft
Bus & Motor
Unknown
Mass
Unknown
Launch date (UTC)
2000-09-21 (25 years ago)
Launch vehicle
Unknown
Launch site
Air Force Western Test Range (AFWTR)
Object type
Payload
Rocket body
Debris
Shape & HBR
Unknown shape, 0.1 m
Radar Cross Section
Small (<0.1 m²)

Expand to show TLE details & history
Last TLE update: 20 hours ago

TLE from 20 hours ago
0 NOAA 16 DEB
1 41094U 00055BD  25352.24651613  .00021027  00000-0  31182-2 0  9992
2 41094  98.9972 273.8888 0035953 121.3512 239.1220 14.74661059526610
Epoch: 2025-12-18T05:54Z
TLE epoch observation values (Epoch: 2025-12-18T05:54:58.993Z)
Latitude
-0.00004°
Longitude
98.03823°
Altitude
662.237 km
Speed
7.519 km/s
True Right ascension
18h 15m 33s
True Declination
0° 00' 00"
Sunlit
Object was in daylight at epoch
Visualization orbit readout
Latitude
Unknown
Longitude
Unknown
Altitude
Unknown
Speed
Unknown
Apparent Right ascension
Unknown
Apparent Declination
Unknown
Sunlit
N/A
Visualization observer readout
Local Sidereal Time
00:45:43
Azimuth
Unknown
Elevation
Unknown
Doppler factor
Unknown
Orbital elements
Apogee altitude
668.572 km
Perigee altitude
618.083 km
Semi-major axis
7,021.465 km
Eccentricity
0.0036
Inclination
98.9972°
RAAN
273.8888°
Arg. of periapsis
121.3512°
True anomaly
238.76922°
Mean anomaly
239.122°
Eccentric anomaly
238.94553°
Mean motion
3.68894 °/min
Orbital period
97.59 mins
BSTAR
0.0031182
Loading maneuver chart data...
Computing Atmospheric mass density...
Loading historical data...
Loading historical data...
Loading historical data...
Loading historical data...
Loading historical data...
Loading historical data...
Loading historical data...

Documentation

Showing up to 5 results
|